User: anonymous   Login
Location: Unspecified
(0.0000°N, 0.0000°E)
Time: 11:45:04
(UTC+00:00)
Language:

Optus B3 - Orbit

View from above orbital plane
View from above orbital plane
View from above satellite
View from above satellite

Ground track
Ground track

The orbit data is extracted from the following two-line orbital elements,

1 23227U 94055A   16273.37479388 -.00000100  00000-0  00000+0 0  9998
2 23227   6.9825  52.0890 0004988 159.6632  95.9603  1.00272743 80863
Epoch (UTC): 29 September 2016 08:59:42
Eccentricity: 0.0004988
inclination: 6.9825°
perigee height: 35765 km
apogee height: 35807 km
right ascension of ascending node: 52.0890°
argument of perigee: 159.6632°
revolutions per day: 1.00272743
mean anomaly at epoch: 95.9603°
orbit number at epoch: 8086

The dashed part of the orbit path shows where the satellite is in the earth's shadow,  

DLR